Terminal Aerodrome Forecast
Issued by NWS

Home | Current Version | Previous Version | Graphics & Text | Print | Product List | Glossary On
Versions: 1 2 3 4 5 6 7 8 9 10 11 12 13 14 15 16
004
FTUS42 KMHX 232209 AAA
TAFOAJ
TAF AMD
KOAJ 232209Z 2322/2418 19010G17KT P6SM VCSH SCT040
     FM240100 21008KT P6SM SCT080
     FM240300 21007KT P6SM SCT120
     FM241000 21007KT P6SM BKN070
      AMD LTD TO CLD VIS AND WIND=

USA.gov is the U.S. government's official web portal to all federal, state and local government web resources and services.